North Platte, NE

2:16 AM CDT on April 23, 2017 (GMT -0500)
North Platte Regional-Bird

Weather History for KLBF - May, 2013

Change the Weather History Date:

Wednesday, May 8, 2013

  Actual Average Record
Temperature  
Mean Temperature 61 °F 55 °F  
Max Temperature 75 °F 69 °F 99 °F (1934)
Min Temperature 46 °F 41 °F 23 °F (1907)
Degree Days  
Heating Degree Days 4 10  
Month to date heating degree days 143 89  
Since 1 July heating degree days 6629 6479  
Cooling Degree Days 0 0  
Month to date cooling degree days 0 0  
Year to date cooling degree days 1 3  
Growing Degree Days 12 (Base 50)    
Moisture  
Dew Point 47 °F    
Average Humidity 65    
Maximum Humidity 96    
Minimum Humidity 33    
Precipitation  
Precipitation 0.47 in 0.10 in 1.59 in (1957)
Month to date precipitation 1.29 0.74  
Year to date precipitation 4.33 4.90  
Snow  
Snow 0.00 in 0.00 in T in (1978)
Month to date snowfall 0.9 0.0  
Since 1 July snowfall 30.2 28.5  
Snow Depth 0.00 in    
Sea Level Pressure  
Sea Level Pressure 29.92 in    
Wind  
Wind Speed 9 mph (North)    
Max Wind Speed 29 mph    
Max Gust Speed 39 mph    
Visibility 9 miles    
Events Rain , Thunderstorm    
T = Trace of Precipitation, MM = Missing Value Source: NWS Daily Summary

Daily Weather History Graph

Daily Weather History Graph

Search for Another Location

Airport or City:

Trip Planner

Search our weather history database for the weather conditions in past years. The results will help you decide how hot, cold, wet, or windy it might be!

Date:

Astronomy

May. 08, 2013 Rise Set
Actual Time 6:31 AM CDT 8:47 PM CDT
Civil Twilight 6:00 AM CDT 9:18 PM CDT
Nautical Twilight 5:23 AM CDT 9:56 PM CDT
Astronomical Twilight 4:41 AM CDT 10:37 PM CDT
Moon 5:41 AM CDT (5/8) 7:47 PM CDT (5/8)
Length of Visible Light 15h 17m
Length of Day
14h 15m
Waning Crescent, 2% of the Moon is Illuminated
May 8
Waning Crescent
May 9
New
May 17
First Quarter
May 24
Full
May 31
Last Quarter

Hourly Weather History & Observations

Time (CDT) Temp. Dew Point Humidity Pressure Visibility Wind Dir Wind Speed Gust Speed Precip Events Conditions
12:53 AM 52.0 °F 50.0 °F 93% 29.92 in 8.0 mi ESE 4.6 mph - N/A   Clear
1:11 AM 51.8 °F 48.2 °F 88% 29.98 in 8.0 mi NW 17.3 mph 25.3 mph N/A Thunderstorm Scattered Clouds
1:23 AM 51.8 °F 44.6 °F 76% 29.99 in 10.0 mi NNW 17.3 mph 39.1 mph N/A Thunderstorm Mostly Cloudy
1:38 AM 48.2 °F 42.8 °F 82% 30.00 in 10.0 mi NNW 17.3 mph 28.8 mph 0.01 in Rain , Thunderstorm Light Rain
1:49 AM 48.9 °F 44.1 °F 83% 29.96 in 4.0 mi North 11.5 mph 21.9 mph 0.06 in Rain Heavy Rain
2:10 AM 50.0 °F 46.4 °F 87% 29.99 in 6.0 mi North 9.2 mph - 0.07 in Rain , Thunderstorm Thunderstorms and Rain
2:25 AM 51.8 °F 46.4 °F 82% 29.98 in 4.0 mi NNE 9.2 mph - 0.10 in Rain Rain
2:53 AM 51.1 °F 48.0 °F 89% 29.93 in 5.0 mi NE 10.4 mph - 0.20 in Rain Rain
3:53 AM 51.1 °F 48.9 °F 92% 29.88 in 10.0 mi South 6.9 mph - 0.10 in Rain Light Rain
4:53 AM 52.0 °F 48.0 °F 86% 29.86 in 10.0 mi North 9.2 mph - 0.11 in   Mostly Cloudy
5:53 AM 51.1 °F 48.0 °F 89% 29.90 in 10.0 mi WSW 8.1 mph - N/A   Scattered Clouds
6:53 AM 48.0 °F 46.0 °F 93% 29.89 in 10.0 mi NW 3.5 mph - N/A   Clear
7:53 AM 48.0 °F 46.0 °F 93% 29.92 in 7.0 mi NW 4.6 mph - N/A   Clear
8:53 AM 54.0 °F 50.0 °F 86% 29.93 in 10.0 mi WNW 5.8 mph - N/A   Clear
9:53 AM 59.0 °F 51.1 °F 75% 29.93 in 10.0 mi WNW 4.6 mph - N/A   Clear
10:53 AM 63.0 °F 51.1 °F 65% 29.94 in 10.0 mi Calm Calm - N/A   Clear
11:53 AM 68.0 °F 50.0 °F 52% 29.93 in 10.0 mi NNW 5.8 mph - N/A   Partly Cloudy
12:53 PM 70.0 °F 50.0 °F 49% 29.92 in 10.0 mi NE 10.4 mph - N/A   Partly Cloudy
1:53 PM 70.0 °F 48.0 °F 46% 29.91 in 10.0 mi ENE 9.2 mph - N/A   Partly Cloudy
2:53 PM 73.0 °F 46.0 °F 38% 29.90 in 10.0 mi NE 9.2 mph 16.1 mph N/A   Clear
3:53 PM 73.0 °F 46.0 °F 38% 29.88 in 10.0 mi NNE 10.4 mph - N/A   Partly Cloudy
4:53 PM 73.9 °F 43.0 °F 33% 29.86 in 10.0 mi NE 13.8 mph - N/A   Partly Cloudy
5:53 PM 73.9 °F 45.0 °F 35% 29.86 in 10.0 mi NE 12.7 mph 24.2 mph N/A   Mostly Cloudy
6:53 PM 72.0 °F 41.0 °F 33% 29.89 in 10.0 mi NNE 16.1 mph 19.6 mph N/A   Clear
7:53 PM 68.0 °F 42.1 °F 39% 29.91 in 10.0 mi NNE 10.4 mph - N/A   Clear
8:53 PM 62.1 °F 45.0 °F 53% 29.94 in 10.0 mi NNE 10.4 mph - N/A   Clear
9:53 PM 57.0 °F 45.0 °F 64% 29.96 in 10.0 mi NE 4.6 mph - N/A   Clear
10:53 PM 52.0 °F 43.0 °F 71% 29.98 in 10.0 mi East 4.6 mph - N/A   Clear
11:53 PM 55.0 °F 44.1 °F 67% 29.94 in 10.0 mi NNE 13.8 mph - N/A   Clear